RH
24 26 29 28 25 22 22 21 21 20 19 19 19 19 19 19 19 19 18 18 17 16 16 16 17 17 18 20 21 22 22 22 22 21 21 21 21 21 20 20 20 20 21 21 22 26 30 31 32 32 31 31
25 28 31 31 28 25 25 24 23 23 23 22 21 20 20 20 20 20 19 18 17 16 15 16 16 17 17 17 18 20 21 21 21 20 20 20 19 19 20 19 19 19 19 20 21 24 27 30 32 33 33 33
25 29 33 34 32 30 29 28 28 27 26 25 24 23 22 22 21 20 19 17 16 15 15 15 16 17 17 17 17 17 18 19 20 20 20 19 19 19 19 18 18 18 19 20 21 23 26 28 31 32 33 33
26 30 34 35 35 34 33 33 32 30 29 29 28 26 24 21 19 18 17 16 15 15 15 15 16 17 18 18 18 17 17 17 18 18 19 19 18 18 18 18 17 17 18 19 21 23 25 27 29 31 32 33
28 32 35 37 37 37 36 36 36 33 32 31 29 27 23 19 17 16 15 15 15 15 16 16 17 17 18 19 19 19 18 17 17 17 17 18 18 18 17 17 17 16 17 19 21 23 25 26 28 29 31 31
30 34 37 38 39 39 39 38 37 35 34 32 29 26 22 19 17 16 15 15 15 16 17 18 19 18 18 19 20 21 20 19 18 18 17 17 17 17 17 16 16 16 17 19 22 25 26 28 29 29 30 29
32 35 37 39 41 41 41 41 38 37 36 33 30 27 25 22 20 18 17 17 18 18 20 21 21 21 20 20 21 22 22 22 21 20 19 18 17 17 17 17 17 17 19 22 26 28 30 31 31 31 30 28
36 37 39 40 41 42 43 42 39 39 38 33 31 31 30 26 24 23 21 20 21 22 22 24 25 24 22 22 21 22 22 21 21 21 20 19 19 20 20 21 22 23 25 28 30 32 33 33 33 32 30 27
41 42 42 42 41 42 43 42 41 40 37 34 32 34 33 30 29 29 26 24 25 27 27 28 29 28 26 25 24 23 22 22 21 21 21 21 22 23 25 27 29 30 31 33 34 35 35 34 33 32 29 27
44 45 45 43 41 42 42 42 41 39 37 35 35 36 35 34 34 34 31 29 30 32 33 33 35 34 31 30 29 27 26 25 23 22 23 24 26 27 29 31 33 35 36 36 36 36 35 33 31 29 29 28
48 48 48 46 44 43 42 42 41 38 36 36 38 39 37 37 38 39 37 35 35 36 39 40 40 39 36 34 32 31 30 28 25 23 24 25 27 29 32 34 36 37 38 38 37 36 34 31 29 28 28 29
53 53 53 51 51 48 44 42 41 38 38 39 41 41 40 41 43 44 43 41 40 41 44 45 43 41 38 36 34 32 32 31 28 26 25 25 26 27 30 32 35 37 39 40 40 38 36 33 29 27 27 29
52 55 55 55 56 54 49 45 43 43 43 44 46 45 44 44 46 48 49 48 47 48 49 48 45 40 37 35 33 31 30 31 30 28 26 24 24 24 25 26 29 31 34 36 38 39 40 39 36 32 28 28
46 52 54 56 59 58 55 52 51 52 51 51 52 52 50 49 50 51 53 54 53 54 53 49 43 39 35 32 30 30 28 28 29 27 25 23 23 23 23 23 23 24 26 27 29 31 33 35 36 37 35 32
42 46 47 51 57 60 59 59 59 59 58 59 60 58 57 56 55 55 56 57 58 59 58 52 44 39 36 32 30 31 29 27 26 26 25 24 23 23 23 23 23 23 23 23 24 24 24 26 27 30 32 35
41 43 44 45 50 55 59 62 64 65 64 65 65 64 64 63 63 62 60 61 62 64 63 58 50 43 40 39 38 38 35 32 30 28 28 27 27 27 27 26 26 26 26 25 25 24 24 24 24 24 25 28
43 43 44 43 44 47 52 58 62 65 68 70 70 69 69 70 70 69 68 67 67 68 68 65 58 51 49 50 49 48 45 41 39 36 34 34 35 35 34 33 34 36 34 32 32 31 30 29 28 27 27 26
45 45 46 46 45 46 46 51 55 58 64 68 71 72 73 75 76 75 74 72 71 72 72 70 66 61 61 61 61 61 55 49 48 44 42 42 43 43 42 42 43 45 44 42 41 40 39 38 36 34 32 30
46 48 49 49 49 49 49 50 51 52 56 60 63 68 72 75 78 79 78 76 74 74 74 74 72 71 71 72 73 73 68 61 57 52 50 49 50 49 50 50 50 52 53 50 48 47 45 44 43 43 41 38
47 48 49 51 53 54 54 54 53 53 54 56 57 60 63 67 72 75 76 76 75 75 76 75 75 75 76 77 79 81 78 73 67 63 63 60 58 56 55 56 56 57 59 58 57 55 52 50 48 47 47 46
51 50 50 51 53 56 58 58 57 55 55 55 55 56 57 59 63 67 70 71 72 74 74 74 74 75 76 77 81 83 81 78 74 72 72 68 64 61 57 58 58 60 62 64 65 65 62 60 56 52 50 51
56 55 53 52 52 54 58 61 62 61 59 57 55 54 53 55 57 60 64 66 69 71 71 71 72 73 74 76 80 82 80 77 73 70 68 63 59 56 53 54 58 61 65 67 68 68 68 67 66 62 56 52
63 61 59 57 56 55 56 59 61 63 64 63 61 57 54 54 55 57 59 62 65 67 69 69 71 72 72 74 78 79 75 69 62 57 55 53 51 52 53 53 56 59 61 63 64 63 64 67 72 72 65 58
67 69 68 67 65 62 59 58 60 61 63 64 65 62 58 56 55 56 57 61 63 65 67 67 68 69 69 71 73 71 62 55 51 49 53 57 59 62 62 58 57 57 57 58 58 58 58 61 68 72 70 66
63 68 72 76 78 76 70 65 62 62 62 63 64 64 63 60 59 58 59 61 63 64 66 65 65 64 64 62 61 56 52 51 53 56 62 66 66 67 66 63 61 61 61 60 58 56 57 57 61 66 70 71
62 64 67 71 78 83 83 78 73 69 66 66 66 66 66 64 63 62 63 63 64 65 65 63 59 55 52 51 50 50 52 54 57 60 64 66 65 65 66 67 65 64 65 63 60 60 61 60 59 61 67 71
60 63 64 66 70 76 82 85 85 81 77 76 76 75 74 73 71 69 68 67 67 65 62 58 52 46 45 44 44 45 46 48 50 55 61 65 67 68 70 68 63 61 64 64 63 64 63 62 62 61 62 66
54 56 59 63 67 71 75 79 84 85 84 84 84 83 82 82 81 78 77 75 73 69 64 57 49 45 41 38 35 34 35 37 39 44 52 62 69 69 69 65 57 56 64 66 64 64 65 68 69 63 60 63
53 52 52 54 60 67 72 75 79 81 83 85 86 86 86 86 84 83 83 83 80 77 72 66 58 49 39 33 31 30 30 31 31 35 44 57 68 69 67 65 58 57 63 66 64 65 70 72 69 64 64 65
48 50 50 49 50 56 65 72 75 77 80 81 82 83 84 85 85 84 86 86 83 81 77 72 67 55 39 33 32 31 31 30 30 33 39 52 63 65 65 67 61 56 59 63 61 63 67 66 65 68 70 69
36 40 43 45 45 46 52 61 69 73 76 78 78 77 77 78 78 78 78 78 78 77 73 66 61 55 44 35 32 32 33 32 32 33 38 50 63 67 69 70 63 54 55 58 57 58 61 60 63 71 72 72
Wind_Speed
24 23 23 23 24 25 24 23 22 21 20 19 19 19 19 18 18 18 18 19 20 20 20 21 22 22 23 23 22 22 22 22 22 22 23 23 23 24 24 23 23 23 22 22 21 21 22 23 23 23 24 24
24 24 23 23 24 24 24 24 23 21 20 20 20 20 19 19 19 20 20 21 21 22 22 23 24 24 25 25 25 25 25 25 25 24 24 24 25 25 24 24 24 24 22 22 22 22 23 24 24 24 24 24
25 24 23 23 23 24 24 23 23 22 20 20 20 20 20 20 21 21 21 22 22 23 23 24 25 26 26 27 27 27 27 27 27 27 26 26 26 26 26 26 26 25 23 23 23 24 24 24 24 24 24 25
25 25 24 23 24 23 23 23 23 22 21 20 20 20 21 21 21 22 22 22 22 23 23 24 25 26 27 27 28 28 28 28 28 28 28 28 28 28 28 29 28 26 25 25 25 26 25 25 25 25 25 25
24 24 24 24 24 24 24 24 23 22 22 21 21 21 21 22 22 22 22 22 22 22 23 23 24 25 26 27 27 28 28 28 29 29 29 29 30 30 30 31 30 28 27 27 27 27 27 27 27 26 26 26
24 24 24 24 25 25 24 24 24 24 23 23 23 22 22 22 22 22 22 22 22 22 22 23 23 24 25 26 26 27 27 28 28 29 29 29 29 30 31 31 30 30 29 28 28 28 28 28 28 27 28 28
24 24 24 25 25 25 25 24 25 25 25 25 24 24 23 23 23 23 23 22 22 22 22 22 22 23 23 24 25 25 26 26 26 26 27 27 28 28 30 30 30 30 29 29 29 29 29 28 28 28 28 29
25 25 26 26 26 26 25 26 26 27 27 26 26 25 25 25 24 24 24 23 21 22 22 21 22 22 22 23 23 24 24 25 25 24 25 25 26 27 28 28 28 28 28 28 28 29 29 29 29 29 29 29
26 26 27 26 27 28 27 27 27 28 28 28 28 27 27 26 25 25 25 24 22 22 22 21 22 22 22 22 22 23 23 24 24 24 24 24 25 26 27 27 27 27 27 28 28 28 29 29 29 29 29 30
28 29 28 28 29 30 29 28 29 30 30 30 30 29 28 27 27 27 27 25 23 22 22 22 22 23 23 23 23 23 23 23 23 24 24 24 24 25 25 26 26 26 27 27 27 27 28 28 28 29 29 30
29 30 30 31 31 32 31 30 30 31 32 32 32 31 30 28 28 28 28 27 25 24 23 23 23 24 24 24 24 23 24 24 24 24 24 24 24 24 25 25 26 26 26 26 26 27 27 27 28 28 29 29
30 30 31 32 32 33 32 31 32 32 33 34 33 32 31 30 30 29 29 28 27 26 24 24 24 25 25 25 25 25 25 24 25 25 25 24 24 24 25 25 26 26 26 26 26 26 26 27 27 27 28 29
33 31 32 32 32 32 32 33 33 33 34 34 34 34 33 33 32 31 31 30 28 27 26 26 26 26 26 25 26 26 26 25 25 25 26 25 25 25 25 25 26 26 27 27 27 27 27 27 27 27 27 28
37 35 34 34 33 33 34 34 33 34 34 34 34 34 34 34 34 33 32 31 30 29 29 28 27 27 26 26 26 26 26 26 26 27 27 27 26 26 26 26 26 27 27 27 28 28 27 28 28 28 27 28
40 39 39 38 36 36 36 36 36 35 35 34 34 34 34 35 35 35 34 33 32 31 31 30 29 28 27 26 26 26 26 27 27 28 28 28 28 27 27 27 26 27 27 27 28 28 28 28 28 29 28 28
41 42 42 42 42 41 40 39 39 38 37 36 35 35 34 34 34 35 36 36 34 33 32 32 31 30 28 27 27 26 27 27 28 29 29 29 28 28 28 27 27 27 27 27 27 28 28 28 28 29 29 29
42 43 44 45 46 45 45 44 43 42 41 39 38 37 36 35 35 35 36 36 36 34 34 33 33 32 30 29 27 27 28 28 29 30 30 30 30 29 29 29 28 28 28 28 27 28 28 28 28 29 29 29
42 43 45 47 48 48 49 48 47 47 45 44 42 41 39 39 38 37 37 37 36 35 35 35 35 33 32 30 29 28 29 30 31 32 32 32 32 31 31 30 30 29 29 29 28 28 28 28 28 28 29 29
41 43 45 47 49 50 50 50 50 50 49 48 47 45 44 43 42 41 40 39 38 37 37 37 37 36 34 33 31 31 31 32 33 34 34 35 34 34 33 33 32 31 31 31 30 30 30 30 30 29 29 29
41 43 45 47 49 50 51 52 52 52 51 50 49 49 48 47 46 45 44 43 42 40 40 40 39 38 37 36 34 34 35 35 36 36 37 38 38 37 37 36 35 34 34 34 33 33 33 33 32 31 31 30
39 42 45 47 49 50 51 52 53 53 53 52 52 51 50 50 49 48 47 47 46 44 43 43 42 41 40 39 38 38 38 38 38 39 40 41 41 41 40 39 38 37 37 37 36 36 36 36 36 34 33 32
36 39 42 46 48 50 51 52 53 53 54 54 54 53 52 52 51 50 50 49 48 47 46 45 45 44 43 41 41 41 41 41 41 42 43 43 44 44 43 42 41 40 40 39 39 39 39 39 39 38 36 35
33 36 39 42 45 49 50 51 52 53 54 54 54 54 53 52 52 51 51 50 49 48 48 47 46 46 45 44 43 44 43 43 43 44 45 45 46 46 46 45 44 43 42 42 42 42 42 42 42 42 41 38
32 33 36 38 41 44 48 50 52 53 54 54 53 52 52 52 52 52 52 51 51 50 50 49 48 48 47 46 46 45 44 44 45 45 46 46 46 46 47 47 47 45 44 43 43 44 45 45 45 45 45 43
33 33 34 35 37 38 41 46 49 52 53 53 53 52 52 52 52 53 53 53 52 52 51 51 50 50 49 48 47 45 45 46 47 47 47 48 49 49 50 50 48 46 44 44 45 45 45 46 47 47 47 47
35 35 35 34 35 36 37 39 43 47 50 51 52 52 52 52 52 53 53 54 54 53 52 52 52 51 50 48 46 46 46 47 48 49 50 51 52 52 51 51 50 48 46 46 46 46 46 47 48 48 49 49
36 37 37 37 36 36 37 37 38 41 44 46 47 48 49 49 50 52 52 52 52 53 53 53 53 51 49 47 46 46 47 48 49 50 52 53 53 53 52 52 52 50 48 48 48 48 48 49 49 49 50 50
39 38 38 39 39 38 38 38 38 38 40 42 44 44 44 43 43 44 46 47 47 49 51 52 53 50 47 47 47 47 48 48 49 51 52 53 54 54 54 54 54 53 50 50 50 50 49 49 50 51 51 50
44 42 41 40 40 40 40 40 39 38 39 40 42 43 43 43 43 43 44 45 45 46 48 50 52 50 48 48 48 48 49 49 50 52 54 54 55 55 55 56 56 55 53 52 52 51 50 51 52 52 51 50
50 48 47 45 44 43 42 43 42 40 40 39 41 42 42 43 45 47 47 47 47 48 49 50 50 50 50 51 50 50 50 50 51 53 55 56 56 57 56 56 57 57 55 55 54 52 52 53 52 52 52 51
53 52 52 51 50 48 47 46 46 44 43 42 42 42 42 43 44 45 46 46 47 48 50 51 51 50 51 52 52 52 52 52 52 54 56 57 57 57 57 57 58 58 57 56 55 54 53 54 53 53 54 53
Wind_Direction
248 251 252 248 242 239 238 238 237 235 235 237 239 240 242 245 248 251 254 255 255 253 252 250 249 248 246 245 244 243 243 243 243 243 244 245 246 247 248 248 246 245 243 243 240 238 241 245 247 247 248 250
249 251 251 249 244 240 239 239 238 237 237 239 240 242 243 246 249 252 254 254 254 253 251 250 249 249 248 247 246 245 245 245 245 245 245 246 247 248 249 250 249 248 247 246 244 241 241 244 247 248 248 250
251 251 251 250 246 242 240 240 240 240 240 241 243 244 246 248 251 253 254 255 254 253 252 251 250 249 249 248 247 247 247 247 247 246 247 247 248 249 250 251 251 251 251 250 249 247 245 245 247 248 249 249
253 252 252 250 248 245 243 243 244 244 243 244 246 249 251 252 253 254 254 255 254 254 253 252 251 250 249 249 249 248 248 248 248 248 248 248 248 249 250 250 251 251 251 251 251 251 250 249 249 249 250 251
252 252 251 250 249 248 247 246 247 247 247 247 249 252 255 256 256 256 255 254 254 253 252 252 251 251 251 250 249 249 249 248 249 249 248 248 248 249 250 250 250 250 250 250 250 251 251 251 250 250 251 252
249 248 249 249 249 249 249 249 248 248 249 250 252 254 255 257 257 257 256 254 252 251 249 249 248 248 249 249 249 249 249 249 249 249 249 249 249 250 250 250 250 250 249 249 250 251 251 251 251 251 251 252
243 244 245 246 248 250 250 250 248 248 249 251 253 254 255 257 257 257 255 252 251 250 248 247 247 246 246 247 248 249 249 249 249 250 250 250 250 250 251 251 250 249 249 249 250 251 251 252 252 252 251 251
239 240 241 243 246 250 251 250 248 248 249 251 253 254 255 256 258 258 256 254 252 251 250 249 248 247 246 246 247 247 248 249 249 250 250 251 250 250 251 251 250 249 249 249 250 250 251 252 252 252 252 251
238 238 239 240 244 248 249 249 248 248 249 250 252 252 253 255 258 258 258 257 254 252 251 250 250 250 248 247 247 247 248 248 248 249 249 250 250 250 251 251 251 250 250 250 250 251 252 253 253 253 252 250
239 238 238 237 240 244 247 248 247 247 249 250 251 252 252 254 255 257 258 258 255 253 252 251 251 251 251 249 249 249 250 250 249 249 249 249 250 251 252 253 253 253 253 253 253 254 254 255 255 254 252 250
238 238 238 237 238 241 243 245 247 247 248 249 250 251 251 252 254 255 257 257 256 254 253 253 252 252 252 252 252 252 253 254 254 253 252 252 252 252 253 255 256 256 256 257 257 257 257 257 256 255 252 250
235 237 238 238 238 239 240 242 245 247 248 250 250 250 249 250 252 253 255 256 256 255 254 253 253 254 254 254 254 254 255 256 257 257 258 258 257 257 257 257 258 258 258 258 258 258 258 258 257 256 254 251
230 232 234 236 237 238 238 239 242 245 247 249 251 250 249 249 251 252 254 256 256 256 255 254 254 255 256 256 256 257 258 259 260 261 262 262 261 261 260 260 260 260 260 260 259 259 259 259 259 258 256 254
229 228 229 231 234 236 235 235 237 241 244 247 249 250 250 250 251 251 252 254 255 255 255 254 254 255 256 257 257 258 260 261 262 262 263 263 262 262 261 261 261 261 261 261 261 261 261 261 261 260 259 258
232 229 227 227 229 231 231 232 234 237 239 242 245 248 250 251 251 251 250 251 252 253 254 254 253 253 254 255 256 257 258 259 260 260 261 261 261 261 261 262 261 262 262 262 262 262 263 262 262 262 261 260
238 234 230 228 227 227 226 228 231 233 235 237 240 242 244 247 249 249 249 250 250 251 252 254 253 252 251 252 253 254 255 256 257 258 259 260 260 261 261 261 262 262 262 262 263 263 263 263 262 262 261 261
244 241 237 234 231 228 226 225 227 229 231 234 236 237 239 242 244 245 246 247 247 247 249 250 251 250 249 250 251 253 254 255 256 258 259 259 260 260 260 261 261 261 261 262 262 263 263 263 263 262 262 261
247 245 242 240 237 234 230 227 226 226 228 229 230 232 234 237 240 242 242 243 243 243 244 246 247 248 249 250 251 252 254 255 256 257 258 259 259 259 259 260 260 261 262 263 263 263 263 264 263 263 263 262
247 246 244 243 241 238 235 231 229 229 229 229 229 229 230 232 234 237 239 239 239 239 240 241 243 245 247 249 250 252 254 255 256 258 259 259 259 259 259 260 261 261 262 263 264 264 265 265 265 264 264 263
246 246 245 244 243 241 239 235 233 232 231 231 231 231 231 231 231 232 234 235 235 235 236 237 239 241 244 246 248 250 252 253 255 258 259 260 260 260 260 260 261 261 262 263 264 265 266 267 266 265 265 265
250 247 245 245 244 242 241 239 237 235 234 234 233 233 234 234 233 232 231 231 231 232 232 234 236 238 240 242 244 247 248 251 253 256 258 260 261 262 263 262 262 262 263 263 264 265 266 266 267 267 266 265
259 252 247 245 244 243 242 240 239 239 237 236 236 235 235 236 236 234 233 232 231 231 232 233 234 236 238 239 241 244 246 248 251 254 258 261 264 265 266 266 266 265 264 264 265 265 266 266 267 267 266 265
265 260 254 248 244 242 241 241 240 240 240 239 238 237 236 236 237 236 235 234 233 233 233 234 235 237 238 239 240 242 245 249 253 258 261 264 266 266 267 267 267 266 266 267 267 268 267 267 266 266 267 266
265 262 259 255 250 244 241 240 240 240 240 240 239 237 236 236 236 236 235 235 234 234 234 235 236 237 239 240 241 244 248 253 257 260 261 261 262 262 262 263 264 265 267 269 269 269 269 268 266 266 267 267
268 263 260 257 256 252 245 240 239 238 238 238 237 237 236 235 235 235 235 235 234 235 235 236 237 238 239 240 243 247 251 254 256 257 257 256 258 259 260 261 263 264 266 267 268 270 270 269 267 266 265 265
277 272 267 260 256 255 253 247 243 239 237 236 235 235 234 233 232 233 234 234 234 234 235 237 238 239 241 243 245 248 250 252 254 255 255 256 257 259 260 262 263 264 265 266 269 270 269 267 266 264 263 263
285 282 277 271 264 258 256 254 251 246 241 239 236 235 233 232 230 229 230 230 232 233 235 237 239 240 241 243 245 247 249 251 253 255 255 256 257 259 260 261 264 265 266 267 268 268 267 267 266 265 263 261
286 286 283 280 275 269 263 260 260 256 250 245 241 238 236 234 234 231 228 227 229 232 235 237 238 240 241 243 245 248 250 252 254 256 256 256 257 258 259 261 265 267 266 266 266 266 267 267 266 265 264 262
287 286 284 282 279 276 271 267 267 265 261 256 250 247 244 239 239 239 236 233 232 233 236 238 240 240 240 243 246 249 251 254 256 257 256 256 255 256 258 260 264 265 265 265 266 266 265 264 264 266 266 265
288 286 285 284 282 278 273 269 267 266 264 262 258 255 251 245 242 240 240 239 237 237 238 239 241 242 243 244 246 250 252 255 257 257 256 255 254 256 257 259 261 264 265 265 266 265 264 265 266 267 266 265
289 288 287 286 284 282 279 273 268 265 262 261 260 259 256 252 248 244 241 239 239 238 238 239 241 243 245 245 246 250 252 254 256 257 256 254 254 254 255 257 260 262 264 265 266 265 265 266 266 265 265 264